ARIANE 1 DEB

Satellite information

Favourite Embed

Satellite Type and Status

DEBRISIN ORBIT

Key statistics

Satellite ARIANE 1 DEB at a glance.

Uptime

16572

Days in orbit

Revolutions

≈ 10.1

Per day

Orbit

MEO

Medium Earth Orbit

Inclination

17.8

Latest

Satellite identification and parameters

Extended collection of information and parameters for ARIANE 1 DEB.

Object identification

Identified? True

Debris? True

Object name: ARIANE 1 DEB

International designator: 1979-104J

Object number (NORAD): 25767

Object ID (CCSDS): 25767

Country: FRANCE (FR)

Current information (Y/N): Y

RCS size: MEDIUM

Orbital parameters

Period: 143.257 minutes

Inclination: 17.8134 deg

SMA: 9069.235 km

Apoapsis: 5068.198 km

Periapsis: 314.002 km

RAAN: 46.7246 deg

Eccentricy: 0.2621057

Argument of periapsis: 126.2427 deg

Mean anomaly: 260.9506 deg

Mean motion: 10.05186843 rev/day

Mean motion (dot): 0.00058882 rev/day2

B* drag term: 0.0040455 1/REarth

Two-line elements (TLE)

Creation date: May 8, 2025, 3:01 a.m.

Reference frame: TEME

Reference center: EARTH

Epoch: May 7, 2025, 1:20 a.m. UTC

TLE line 0: 0 ARIANE 1 DEB

TLE line 1: 1 25767U 79104J 25127.05597886 .00058882 00000-0 40455-2 0 9994

TLE line 2: 2 25767 17.8134 46.7246 2621057 126.2427 260.9506 10.05186843341315

Live tracking on map

Real-time ground track for satellite ARIANE 1 DEB.

In-orbit conjunctions

A list of the most updated potential collisions computed for object ARIANE 1 DEB.

Target Orbit TCA Probability of collision Miss distance Type
ATLAS F R/B HEO 2024-09-11 16:25:58 TBA 4275.0 (m) ROCKET BODY

Associated space launch

Vehicle evaluation payload for the Ariane 1 launch vehicle

ARIANE 1 DEB was lifted into orbit during the mission ‘Ariane 1 | CAT 1’, on board a Ariane 1 space rocket.

The launch took place on Dec. 24, 1979, 5:14 p.m. from Ariane Launch Area 1 (ELV).

For more information about the launch, click the button.

Launch to space Ariane 1 | CAT 1
Ariane 1 | CAT 1

Agency: N/A

Status: Launch Successful

Launch date: Dec. 24, 1979, 5:14 p.m. UTC

Rocket: Ariane 1

Launch pad: Ariane Launch Area 1 (ELV)

Location: Guiana Space Centre, French Guiana

...

Latest news about this satellite

There are no fresh news available about this satellite. Check back as we update our databases every day.


Newsletter sign-up

Weekly statistics, charts and insights to help you stay on top of the space industry.